TimePST,TemperatureF,Dew PointF,Humidity,Sea Level PressureIn,VisibilityMPH,Wind Direction,Wind SpeedMPH,Gust SpeedMPH,PrecipitationIn,Events,Conditions,WindDirDegrees,DateUTC
12:54 AM,55.9,54.0,93,30.10,10.0,Calm,Calm,-,N/A,,Overcast,0,2012-12-06 08:54:00
1:54 AM,55.9,54.0,93,30.09,10.0,Calm,Calm,-,N/A,,Overcast,0,2012-12-06 09:54:00
2:38 AM,55.4,53.6,94,30.12,4.0,Calm,Calm,-,N/A,,Overcast,0,2012-12-06 10:38:00
2:44 AM,55.4,53.6,94,30.12,5.0,Calm,Calm,-,N/A,,Overcast,0,2012-12-06 10:44:00
2:54 AM,55.9,54.0,93,30.10,5.0,Calm,Calm,-,N/A,,Overcast,0,2012-12-06 10:54:00
3:19 AM,55.4,53.6,94,30.11,9.0,Calm,Calm,-,N/A,,Overcast,0,2012-12-06 11:19:00
3:47 AM,55.4,53.6,94,30.11,9.0,Calm,Calm,-,N/A,,Overcast,0,2012-12-06 11:47:00
3:54 AM,55.9,54.0,93,30.08,8.0,Calm,Calm,-,N/A,,Overcast,0,2012-12-06 11:54:00
4:27 AM,55.4,53.6,94,30.10,6.0,Calm,Calm,-,N/A,,Overcast,0,2012-12-06 12:27:00
4:54 AM,55.9,54.0,93,30.07,6.0,Calm,Calm,-,N/A,,Overcast,0,2012-12-06 12:54:00
5:14 AM,55.4,53.6,94,30.10,3.0,West,5.8,-,N/A,,Overcast,260,2012-12-06 13:14:00
5:54 AM,54.0,52.0,93,30.08,10.0,West,5.8,-,N/A,,Overcast,270,2012-12-06 13:54:00
6:19 AM,53.6,51.8,94,30.11,10.0,Calm,Calm,-,N/A,,Overcast,0,2012-12-06 14:19:00
6:54 AM,55.0,52.0,89,30.09,10.0,Calm,Calm,-,N/A,,Overcast,0,2012-12-06 14:54:00
7:27 AM,53.6,51.8,94,30.11,8.0,North,-9999.0,-,N/A,,Overcast,0,2012-12-06 15:27:00
7:54 AM,54.0,52.0,93,30.09,10.0,SE,4.6,-,N/A,,Overcast,140,2012-12-06 15:54:00
8:05 AM,53.6,51.8,94,30.12,10.0,South,4.6,-,N/A,,Overcast,190,2012-12-06 16:05:00
8:54 AM,55.0,52.0,89,30.11,10.0,SW,6.9,-,N/A,,Overcast,220,2012-12-06 16:54:00
9:01 AM,55.4,51.8,88,30.13,10.0,SW,6.9,-,N/A,,Overcast,230,2012-12-06 17:01:00
9:25 AM,55.4,51.8,88,30.13,10.0,SW,4.6,-,N/A,,Overcast,230,2012-12-06 17:25:00
9:54 AM,55.0,52.0,89,30.12,10.0,Calm,Calm,-,N/A,,Overcast,0,2012-12-06 17:54:00
10:54 AM,57.0,52.0,83,30.11,10.0,Calm,Calm,-,N/A,,Overcast,0,2012-12-06 18:54:00
11:20 AM,57.2,53.6,88,30.13,10.0,WSW,3.5,-,N/A,,Overcast,250,2012-12-06 19:20:00
11:54 AM,57.9,52.0,81,30.09,10.0,Calm,Calm,-,N/A,,Mostly Cloudy,0,2012-12-06 19:54:00
12:30 PM,59.0,53.6,82,30.11,10.0,Calm,Calm,-,N/A,,Mostly Cloudy,0,2012-12-06 20:30:00
12:54 PM,59.0,53.1,81,30.07,10.0,SW,5.8,-,N/A,,Mostly Cloudy,220,2012-12-06 20:54:00
1:54 PM,60.1,53.1,78,30.06,10.0,SSW,4.6,-,N/A,,Mostly Cloudy,210,2012-12-06 21:54:00
2:54 PM,60.1,50.0,69,30.04,10.0,SSW,5.8,-,N/A,,Scattered Clouds,210,2012-12-06 22:54:00
3:54 PM,59.0,50.0,72,30.06,10.0,SW,5.8,-,N/A,,Mostly Cloudy,220,2012-12-06 23:54:00
4:54 PM,55.0,48.0,77,30.06,10.0,SSW,5.8,-,N/A,,Scattered Clouds,200,2012-12-07 00:54:00
5:54 PM,52.0,48.0,86,30.07,10.0,Calm,Calm,-,N/A,,Partly Cloudy,0,2012-12-07 01:54:00
6:54 PM,50.0,46.9,89,30.09,10.0,Calm,Calm,-,N/A,,Clear,0,2012-12-07 02:54:00
7:54 PM,46.9,44.1,90,30.09,10.0,NNE,3.5,-,N/A,,Clear,20,2012-12-07 03:54:00
8:54 PM,45.0,43.0,93,30.10,10.0,Calm,Calm,-,N/A,,Clear,0,2012-12-07 04:54:00
9:40 PM,42.8,41.0,93,30.14,4.0,Calm,Calm,-,N/A,,Scattered Clouds,0,2012-12-07 05:40:00
9:42 PM,42.8,41.0,93,30.14,1.8,Calm,Calm,-,N/A,,Scattered Clouds,0,2012-12-07 05:42:00
9:50 PM,42.8,42.8,100,30.13,0.8,Calm,Calm,-,N/A,,Mist,0,2012-12-07 05:50:00
9:54 PM,42.1,41.0,96,30.11,0.5,Calm,Calm,-,N/A,Fog,Fog,0,2012-12-07 05:54:00
10:14 PM,42.8,42.8,100,30.13,1.0,NW,3.5,-,N/A,,Mist,310,2012-12-07 06:14:00
10:22 PM,42.8,42.8,100,30.13,1.2,Calm,Calm,-,N/A,,Partly Cloudy,0,2012-12-07 06:22:00
10:28 PM,42.8,42.8,100,30.13,0.8,Calm,Calm,-,N/A,,Mist,0,2012-12-07 06:28:00
10:39 PM,44.6,42.8,93,30.14,0.5,Calm,Calm,-,N/A,Fog,Fog,0,2012-12-07 06:39:00
10:54 PM,44.1,43.0,96,30.11,0.5,Calm,Calm,-,N/A,Fog,Fog,0,2012-12-07 06:54:00
11:08 PM,41.0,39.2,93,30.13,1.0,North,4.6,-,N/A,,Mist,10,2012-12-07 07:08:00
11:16 PM,44.6,42.8,93,30.14,2.0,North,6.9,-,N/A,,Partly Cloudy,360,2012-12-07 07:16:00
11:24 PM,44.6,42.8,93,30.13,7.0,North,6.9,-,N/A,,Clear,350,2012-12-07 07:24:00
11:43 PM,44.6,42.8,93,30.13,1.8,Calm,Calm,-,N/A,,Partly Cloudy,0,2012-12-07 07:43:00
11:54 PM,45.0,43.0,93,30.11,2.5,NNW,4.6,-,N/A,,Partly Cloudy,340,2012-12-07 07:54:00